Weather History for Ellensburg, WA

Change the Weather History Date:

Thursday, July 25, 2013

  Actual Average (KYKM) Record (KYKM)
Temperature  
Mean Temperature 80 °F 72 °F  
Max Temperature 98 °F 90 °F 102 °F (2013)
Min Temperature 64 °F 55 °F 42 °F (1949)
Degree Days  
Heating Degree Days 0 0  
Month to date heating degree days 19  
Since 1 June heating degree days 117  
Since 1 July heating degree days 19  
Cooling Degree Days 16 7  
Month to date cooling degree days 148  
Year to date cooling degree days 233  
Since 1 June cooling degree days 213  
Growing Degree Days 30 (Base 50)    
Moisture  
Dew Point 41 °F    
Average Humidity 27    
Maximum Humidity 46    
Minimum Humidity 10    
Precipitation  
Precipitation 0.00 in 0.01 in 0.29 in (2011)
Month to date precipitation 0.19  
Year to date precipitation 4.48  
Snow  
Snow 0.00 in 0.00 in 0.00 in (2002)
Month to date snowfall 0.0  
Year to date snowfall 8.6  
Since 1 July snowfall 0.0  
Snow Depth -    
Sea Level Pressure  
Sea Level Pressure 29.95 in    
Wind  
Wind Speed 16 mph (NW)    
Max Wind Speed 24 mph    
Max Gust Speed 34 mph    
Visibility 10 miles    
Events      
T = Trace of Precipitation, MM = Missing Value Source: NWS Daily Summary

Daily Weather History Graph

Daily Weather History Graph

Search for Another Location

Airport:

Trip Planner

Search our weather history database for the weather conditions in past years. The results will help you decide how hot, cold, wet, or windy it might be!

Date:

Astronomy

Jul. 25, 2013 Rise Set
Actual Time 5:33 AM PDT 8:43 PM PDT
Civil Twilight 4:56 AM PDT 9:19 PM PDT
Nautical Twilight 4:09 AM PDT 10:06 PM PDT
Astronomical Twilight 3:10 AM PDT 11:05 PM PDT
Moon 10:06 PM PDT (7/25) 9:26 AM PDT (7/25)
Length of Visible Light 16h 22m
Length of Day
15h 09m
Waning Gibbous, 87% of the Moon is Illuminated
Jul 25
Waning Gibbous
Jul 29
Last Quarter
Aug 6
New
Aug 14
First Quarter
Aug 20
Full

Hourly Weather History & Observations

Time (PDT) Temp. Dew Point Humidity Pressure Visibility Wind Dir Wind Speed Gust Speed Precip Events Conditions
12:53 AM 71.1 °F 48.9 °F 45% 29.93 in 10.0 mi WNW 16.1 mph - N/A   Clear
1:53 AM 70.0 °F 48.0 °F 46% 29.93 in 10.0 mi NW 15.0 mph - N/A   Clear
2:53 AM 69.1 °F 46.9 °F 45% 29.93 in 10.0 mi NW 17.3 mph - N/A   Clear
3:53 AM 69.1 °F 45.0 °F 42% 29.94 in 10.0 mi NW 15.0 mph - N/A   Clear
4:53 AM 68.0 °F 44.1 °F 42% 29.94 in 10.0 mi NW 13.8 mph - N/A   Clear
5:53 AM 64.0 °F 43.0 °F 46% 29.96 in 10.0 mi NW 8.1 mph - N/A   Clear
6:53 AM 68.0 °F 44.1 °F 42% 29.96 in 10.0 mi WNW 5.8 mph - N/A   Clear
7:53 AM 75.9 °F 39.9 °F 27% 29.97 in 10.0 mi NW 12.7 mph 17.3 mph N/A   Clear
8:53 AM 79.0 °F 39.0 °F 24% 29.97 in 10.0 mi NW 18.4 mph - N/A   Clear
9:53 AM 82.9 °F 39.0 °F 21% 29.96 in 10.0 mi NW 17.3 mph - N/A   Clear
10:53 AM 88.0 °F 39.0 °F 18% 29.96 in 10.0 mi NW 12.7 mph - N/A   Clear
11:53 AM 91.9 °F 36.0 °F 14% 29.96 in 10.0 mi NW 11.5 mph - N/A   Clear
12:53 PM 95.0 °F 37.9 °F 14% 29.95 in 10.0 mi WNW 11.5 mph - N/A   Clear
1:53 PM 96.1 °F 33.1 °F 11% 29.94 in 10.0 mi NW 16.1 mph 23.0 mph N/A   Clear
2:53 PM 97.0 °F 32.0 °F 10% 29.94 in 10.0 mi WNW 18.4 mph 25.3 mph N/A   Clear
3:53 PM 96.1 °F 32.0 °F 10% 29.93 in 10.0 mi NW 23.0 mph 29.9 mph N/A   Clear
4:53 PM 95.0 °F 35.1 °F 12% 29.92 in 10.0 mi NW 23.0 mph 29.9 mph N/A   Clear
5:53 PM 91.9 °F 37.9 °F 15% 29.93 in 10.0 mi WNW 24.2 mph 34.5 mph N/A   Clear
6:53 PM 88.0 °F 39.0 °F 18% 29.94 in 10.0 mi NW 19.6 mph 29.9 mph N/A   Clear
7:53 PM 84.0 °F 41.0 °F 22% 29.95 in 10.0 mi NW 24.2 mph 29.9 mph N/A   Clear
8:53 PM 80.1 °F 44.1 °F 28% 29.96 in 10.0 mi NW 17.3 mph 28.8 mph N/A   Clear
9:53 PM 77.0 °F 45.0 °F 32% 29.97 in 10.0 mi NW 21.9 mph 26.5 mph N/A   Clear
10:53 PM 75.0 °F 45.0 °F 34% 29.98 in 10.0 mi NW 17.3 mph 25.3 mph N/A   Clear
11:53 PM 73.0 °F 45.0 °F 37% 29.98 in 10.0 mi NW 17.3 mph - N/A   Clear